Weather History for KCEW - July, 2013

Change the Weather History Date:

Monday, July 1, 2013

  Actual Average Record
Temperature  
Mean Temperature 80 °F -  
Max Temperature 91 °F 93 °F 100 °F (1998)
Min Temperature 68 °F 70 °F 63 °F (1985)
Cooling Degree Days 14    
Growing Degree Days 30 (Base 50)    
Moisture  
Dew Point 68 °F    
Average Humidity 80    
Maximum Humidity 100    
Minimum Humidity 36    
Precipitation  
Precipitation 0.02 in - - ()
Sea Level Pressure  
Sea Level Pressure 29.82 in    
Wind  
Wind Speed 2 mph (SW)    
Max Wind Speed 9 mph    
Max Gust Speed -    
Visibility 5 miles    
Events Fog    
Averages and records for this station are not official NWS values.
T = Trace of Precipitation, MM = Missing Value Source: NWS Daily Summary

Daily Weather History Graph

Daily Weather History Graph

Search for Another Location

Airport or City:

Trip Planner

Search our weather history database for the weather conditions in past years. The results will help you decide how hot, cold, wet, or windy it might be!

Date:

Astronomy

Jul. 01, 2013 Rise Set
Actual Time 5:46 AM CDT 7:53 PM CDT
Civil Twilight 5:19 AM CDT 8:20 PM CDT
Nautical Twilight 4:45 AM CDT 8:54 PM CDT
Astronomical Twilight 4:09 AM CDT 9:30 PM CDT
Moon 1:01 AM CDT (7/1) 2:20 PM CDT (7/1)
Length of Visible Light 15h 01m
Length of Day
14h 06m
Waning Crescent, 35% of the Moon is Illuminated
Jul 1
Waning Crescent
Jul 8
New
Jul 15
First Quarter
Jul 22
Full
Jul 29
Last Quarter

Hourly Weather History & Observations

Time (CDT) Temp. Heat Index Dew Point Humidity Pressure Visibility Wind Dir Wind Speed Gust Speed Precip Events Conditions
12:10 AM 69.8 °F - 66.2 °F 88% 29.80 in 1.2 mi ESE 5.8 mph - N/A   Partly Cloudy
12:24 AM 69.8 °F - 66.2 °F 88% 29.79 in 2.5 mi Calm Calm - N/A   Partly Cloudy
12:35 AM 69.8 °F - 66.2 °F 88% 29.80 in 3.0 mi Calm Calm - N/A   Partly Cloudy
12:53 AM 70.0 °F - 68.0 °F 93% 29.79 in 4.0 mi Calm Calm - N/A   Clear
1:20 AM 69.8 °F - 66.2 °F 88% 29.80 in 2.5 mi Calm Calm - N/A   Clear
1:30 AM 69.8 °F - 66.2 °F 88% 29.79 in 4.0 mi Calm Calm - N/A   Clear
1:53 AM 69.1 °F - 66.9 °F 93% 29.78 in 4.0 mi Calm Calm - N/A   Clear
2:05 AM 68.0 °F - 66.2 °F 94% 29.79 in 2.0 mi Calm Calm - N/A   Clear
2:16 AM 68.0 °F - 66.2 °F 94% 29.79 in 4.0 mi Calm Calm - N/A   Clear
2:53 AM 68.0 °F - 66.0 °F 93% 29.78 in 4.0 mi Calm Calm - N/A   Partly Cloudy
3:11 AM 68.0 °F - 66.2 °F 94% 29.80 in 4.0 mi Calm Calm - N/A   Mostly Cloudy
3:42 AM 69.8 °F - 66.2 °F 88% 29.80 in 1.8 mi Calm Calm - N/A   Overcast
3:48 AM 69.8 °F - 66.2 °F 88% 29.80 in 0.5 mi Calm Calm - N/A Fog Fog
3:53 AM 69.1 °F - 66.9 °F 93% 29.79 in 0.2 mi Calm Calm - N/A Fog Fog
4:25 AM 69.8 °F - 66.2 °F 88% 29.81 in 0.2 mi Calm Calm - N/A Fog Fog
4:53 AM 69.1 °F - 68.0 °F 96% 29.81 in 0.8 mi Calm Calm - N/A   Mist
5:08 AM 69.8 °F - 68.0 °F 94% 29.81 in 0.5 mi Calm Calm - N/A Fog Fog
5:17 AM 69.8 °F - 68.0 °F 94% 29.81 in 0.5 mi Calm Calm - N/A Fog Fog
5:24 AM 69.8 °F - 66.2 °F 88% 29.81 in 1.0 mi Calm Calm - N/A   Mist
5:45 AM 69.8 °F - 66.2 °F 88% 29.81 in 2.5 mi Calm Calm - N/A   Overcast
5:53 AM 70.0 °F - 68.0 °F 93% 29.81 in 2.5 mi Calm Calm - N/A   Overcast
6:14 AM 69.8 °F - 69.8 °F 100% 29.81 in 1.5 mi Calm Calm - N/A   Overcast
6:24 AM 69.8 °F - 69.8 °F 100% 29.82 in 0.5 mi Calm Calm - N/A Fog Fog
6:53 AM 72.0 °F - 70.0 °F 93% 29.81 in 0.2 mi Calm Calm - N/A Fog Fog
7:15 AM 73.4 °F - 71.6 °F 94% 29.83 in 1.0 mi Calm Calm - N/A   Overcast
7:18 AM 73.4 °F - 71.6 °F 94% 29.83 in 4.0 mi WNW 4.6 mph - N/A   Overcast
7:37 AM 75.2 °F - 73.4 °F 94% 29.84 in 5.0 mi ESE 3.5 mph - N/A   Scattered Clouds
7:53 AM 75.0 °F - 73.9 °F 96% 29.83 in 4.0 mi Calm Calm - N/A   Clear
8:53 AM 81.0 °F 86.7 °F 75.0 °F 82% 29.83 in 10.0 mi South 3.5 mph - N/A   Clear
9:53 AM 86.0 °F 92.2 °F 72.0 °F 63% 29.84 in 10.0 mi SW 5.8 mph - N/A   Clear
10:53 AM 86.0 °F 91.5 °F 71.1 °F 61% 29.85 in 10.0 mi Variable 3.5 mph - N/A   Mostly Cloudy
11:53 AM 87.1 °F 92.8 °F 71.1 °F 59% 29.83 in 10.0 mi WSW 6.9 mph - 0.02 in   Scattered Clouds
12:53 PM 90.0 °F 92.4 °F 66.0 °F 45% 29.83 in 10.0 mi SW 9.2 mph - N/A   Partly Cloudy
1:53 PM 91.0 °F 91.9 °F 63.0 °F 39% 29.82 in 10.0 mi WSW 9.2 mph - N/A   Clear
2:53 PM 91.0 °F 90.9 °F 61.0 °F 36% 29.81 in 10.0 mi SW 9.2 mph - N/A   Clear
3:53 PM 90.0 °F 90.3 °F 62.1 °F 39% 29.82 in 10.0 mi West 5.8 mph - N/A   Clear
4:53 PM 90.0 °F 90.0 °F 61.0 °F 38% 29.81 in 10.0 mi West 8.1 mph - N/A   Clear
5:53 PM 89.1 °F 90.3 °F 64.0 °F 43% 29.82 in 10.0 mi West 5.8 mph - N/A   Clear
6:53 PM 86.0 °F 88.8 °F 66.9 °F 53% 29.85 in 10.0 mi South 8.1 mph - N/A   Clear
7:53 PM 82.0 °F 84.9 °F 68.0 °F 62% 29.87 in 10.0 mi South 4.6 mph - N/A   Clear
8:53 PM 80.1 °F 82.9 °F 69.1 °F 69% 29.88 in 10.0 mi South 3.5 mph - N/A   Scattered Clouds
9:53 PM 78.1 °F - 69.1 °F 74% 29.90 in 10.0 mi Calm Calm - N/A   Overcast
10:53 PM 77.0 °F - 70.0 °F 79% 29.91 in 10.0 mi Calm Calm - N/A   Clear
11:53 PM 75.9 °F - 70.0 °F 82% 29.91 in 10.0 mi Calm Calm - N/A   Overcast